Location: ??????
(54.6099°N, 38.6620°E)
Time: 05:34:11
(UTC+00:00)

Daily predictions for brighter satellites

Satellite Brightness Start Highest point End
(mag) Time Altitude Azimuth Time Altitude Azimuth Time Altitude Azimuth
COSMOS 2455 4.3 00:14:42 31° E 00:14:42 31° E 00:19:03 10° NE
Cosmos 1980 Rocket 4.0 00:20:01 24° NNE 00:20:01 24° NNE 00:22:19 10° NNE
CZ-2D R/B 4.2 00:12:45 10° NNE 00:14:24 21° NNE 00:14:24 21° NNE
Cosmos 2278 Rocket 4.0 00:19:58 25° NNE 00:20:32 26° NNE 00:25:12 10° E
Cosmos 2333 Rocket 3.5 00:26:59 37° ENE 00:26:59 37° ENE 00:30:58 10° NE
USA 267 4.1 00:24:23 10° ENE 00:30:07 40° SE 00:30:07 40° SE
Cosmos 2369 Rocket 4.4 00:36:48 15° N 00:37:43 16° N 00:41:06 10° NE
USA 238 DEB 3.9 00:41:37 63° ENE 00:41:37 63° ENE 00:47:30 10° NE
USA 238 3.9 00:41:42 64° ENE 00:41:42 64° ENE 00:47:37 10° NE
H-2A R/B 3.6 00:37:35 10° NNE 00:40:13 30° NE 00:40:13 30° NE
Cosmos 2322 Rocket 2.9 00:50:29 51° E 00:50:29 51° E 00:55:16 10° NE
ADEOS II 3.7 00:44:40 10° NNE 00:47:00 27° NNE 00:47:00 27° NNE
Cosmos 2360 Rocket 2.9 00:50:51 49° E 00:50:51 49° E 00:55:50 10° NE
SL-16 R/B 2.9 00:56:24 50° NNE 00:56:24 50° NNE 01:00:31 10° NNE
Resurs 1-4 Rocket 3.9 00:49:49 10° N 00:51:43 22° N 00:51:43 22° N
Cosmos 2278 4.1 01:03:52 57° NNE 01:03:52 57° NNE 01:08:22 10° NNE
Cosmos 1943 Rocket 3.4 01:01:40 30° N 01:03:25 38° NE 01:08:32 10° ESE
CENTAUR R/B 3.6 01:05:51 39° NNW 01:07:26 44° N 01:15:31 10° ENE
SJ 16-02 4.2 01:06:07 10° NNE 01:07:30 11° NE 01:08:53 10° NE
USA 234 3.8 01:03:43 10° SE 01:08:31 44° S 01:08:31 44° S
ARGOS 4.0 01:05:13 10° NNE 01:10:29 48° E 01:13:01 28° SSE
Lacrosse 5 rocket 3.7 01:14:16 17° E 01:14:16 17° E 01:15:13 10° ENE
Cosmos 1697 Rocket 4.5 01:15:34 20° N 01:15:34 20° N 01:18:44 10° NNE
Meteor 2-19 Rocket 4.4 01:15:35 70° SSE 01:16:15 81° E 01:22:24 10° NNE
Cosmos 967 Rocket 4.4 01:16:59 76° S 01:17:25 81° SE 01:23:52 10° NE
Cosmos 2173 Rocket 4.5 01:21:05 10° N 01:27:06 57° ENE 01:33:05 10° SSE
Cosmos 2228 Rocket 4.3 01:26:17 19° SSE 01:28:55 39° E 01:33:02 10° NNE
Cosmos 1125 Rocket 3.9 01:31:00 52° N 01:31:00 52° N 01:35:11 10° NNE
Cosmos 2219 Rocket 2.6 01:29:00 42° S 01:30:42 60° ESE 01:36:19 10° NE
Cosmos 1153 Rocket 4.3 01:27:04 10° NNW 01:33:16 90° WSW 01:39:29 10° S
Cosmos 1140 Rocket 3.7 01:36:14 42° N 01:37:53 68° ENE 01:42:58 10° SE
ADEOS Rocket 3.1 01:34:08 10° NNE 01:40:24 67° WNW 01:41:57 52° SW
NOSS 3-2 (C) 4.0 01:39:55 41° NW 01:40:45 43° NNW 01:47:26 10° ENE
COSMO-SKYMED 1 4.3 01:39:24 10° ESE 01:43:00 29° ENE 01:46:35 10° N
ACS3 Solar Sail 1.7 01:39:14 10° N 01:45:09 64° WNW 01:45:47 60° W
Cosmos 44 Rocket 3.2 01:46:52 81° W 01:47:03 83° SW 01:52:12 10° SE
SeaSat 1 4.4 01:45:43 10° NNE 01:48:12 17° NNW 01:48:12 17° NNW
Cosmos 921 Rocket 4.4 01:53:07 28° S 01:53:07 28° S 01:55:17 10° S
CZ-2C R/B 2.4 01:46:32 10° NNE 01:51:31 83° ESE 01:54:12 29° SSW
Cosmos 2333 4.1 01:52:10 53° SW 01:53:36 82° NW 01:59:25 10° NNE
Iridium 4 Rocket 4.5 01:53:04 10° N 01:57:17 39° ENE 02:01:16 10° SSE
CZ-2D R/B 3.7 01:53:21 10° N 01:55:40 20° NNW 01:55:40 20° NNW
COSMOS 2455 2.8 01:57:51 52° WSW 01:59:19 71° NW 02:05:23 10° NE
NOSS 2-3 (E) 4.4 02:01:55 34° N 02:01:55 34° N 02:05:37 10° NE
Cosmos 1980 Rocket 3.7 02:01:45 21° NNW 02:02:01 21° NNW 02:06:14 10° NNE
Timation 2 Rocket 4.0 01:59:51 22° NW 02:04:29 84° WSW 02:10:59 10° SSE
Cosmos 2278 Rocket 2.3 02:01:50 23° NNW 02:05:30 78° NE 02:11:10 10° SE
NOSS 3-2 (A) 4.5 02:06:19 27° NW 02:09:07 40° N 02:16:11 10° ENE
Lacrosse 4 Rocket 3.7 02:09:05 12° N 02:09:46 13° N 02:11:38 10° NNE
Cosmos 2333 Rocket 2.5 02:09:01 44° WNW 02:09:50 47° NW 02:15:25 10° NNE
Meteor 2-14 Rocket 4.3 02:06:46 10° S 02:12:53 88° W 02:19:02 10° NNE
USA 267 3.2 02:07:28 10° ENE 02:14:03 85° SSE 02:17:28 31° WSW
Cosmos 2237 Rocket 4.4 02:10:47 10° SSE 02:15:20 25° ESE 02:19:53 10° NE
Cosmos 407 Rocket 3.6 02:12:23 15° NNW 02:16:37 75° ENE 02:21:42 10° SSE
Cosmos 2150 Rocket 3.9 02:16:37 38° SW 02:18:33 66° WNW 02:23:50 10° NNE
Meteor 1-24 Rocket 4.3 02:13:55 10° S 02:19:34 59° E 02:25:02 10° NNE
Cosmos 2100 Rocket 3.8 02:13:52 10° NNW 02:19:59 68° W 02:26:04 10° S
Cosmos 1023 Rocket 4.4 02:19:33 35° NW 02:21:30 58° WSW 02:26:27 10° S
H-2A R/B 3.0 02:17:18 10° N 02:20:43 28° NW 02:20:43 28° NW
Cosmos 1862 Rocket 3.5 02:21:54 49° WSW 02:22:38 57° WNW 02:26:53 10° N
Cosmos 1908 Rocket 3.4 02:18:18 10° NNW 02:22:47 85° W 02:27:12 10° S
Cosmos 1809 Rocket 4.3 02:17:05 10° SSW 02:23:11 75° WNW 02:29:18 10° N
Cosmos 2369 Rocket 3.8 02:18:45 10° NNW 02:23:39 29° NE 02:28:35 10° E
NOSS 2-3 (D) 4.4 02:24:07 30° NNW 02:24:32 31° NNW 02:28:36 10° NE
Cosmos 1269 Rocket 4.1 02:22:39 32° NW 02:24:51 53° WSW 02:29:58 10° S
Meteor 2-5 Rocket 4.4 02:20:07 10° S 02:25:56 61° E 02:31:42 10° NNE
USA 59 Rocket 0.6 02:24:24 21° S 02:26:04 35° SE 02:28:49 10° ENE
Cosmos 1939 Rocket 2.6 02:22:59 10° NNE 02:26:53 81° WNW 02:30:41 10° SSW
ADEOS II 3.6 02:25:08 10° N 02:27:48 19° NW 02:27:48 19° NW
ALOS 4.5 02:26:39 10° NNW 02:26:54 11° NNW 02:26:54 11° NNW
Cosmos 1300 Rocket 3.8 02:24:52 10° N 02:29:14 69° ENE 02:33:32 10° SSE
Cosmos 2251 Rocket 4.0 02:25:18 10° NNW 02:30:37 60° ENE 02:35:56 10° SE
USA 238 DEB 4.0 02:29:03 30° WNW 02:31:59 49° NNW 02:38:58 10° NE
USA 238 4.0 02:29:08 31° WNW 02:32:05 50° NNW 02:39:04 10° NE
Okean 1-7 2.9 02:30:33 27° SW 02:32:38 56° WNW 02:36:49 10° N
Resurs 1-4 Rocket 4.0 02:30:58 10° NNW 02:32:46 14° NNW 02:32:46 14° NNW
Cosmos 2322 Rocket 2.7 02:32:18 32° W 02:33:58 40° NW 02:39:21 10° NNE
Cosmos 2360 Rocket 2.6 02:32:37 33° W 02:34:30 43° NW 02:39:54 10° NNE
Cosmos 1328 3.6 02:33:19 10° S 02:36:58 82° E 02:40:38 10° NNE
USA 276 4.4 02:40:17 11° S 02:40:17 11° S 02:40:37 10° S
SL-16 R/B 3.2 02:38:14 26° WNW 02:39:37 29° NW 02:44:32 10° NNE
Cosmos 2298 Rocket 4.2 02:39:18 25° WSW 02:42:06 49° NW 02:47:17 10° NNE
Cosmos 1864 Rocket 4.4 02:37:13 10° NNW 02:43:26 67° W 02:49:40 10° S
Cosmos 1459 Rocket 4.1 02:38:14 10° NNW 02:44:24 53° W 02:50:31 10° SSW
H-2A R/B 3.6 02:41:33 10° N 02:45:11 40° WNW 02:46:11 33° WSW
SL-08 RB Rocket 4.0 02:41:20 10° N 02:45:41 44° WNW 02:49:08 15° SW
SJ 16-02 2.4 02:42:40 10° NNW 02:46:49 43° ENE 02:50:55 10° SE
Cosmos 1943 Rocket 2.2 02:43:12 17° NW 02:47:25 58° WSW 02:52:47 10° SSE
NOAA 12 4.3 02:42:53 10° NNE 02:48:14 75° ESE 02:53:34 10° S
Lacrosse 5 rocket 0.9 02:47:57 41° WNW 02:48:57 65° NNW 02:52:19 10° ENE
ARGOS 3.7 02:45:40 10° N 02:50:38 37° WNW 02:54:28 16° WSW
Cosmos 1707 Rocket 4.2 02:49:36 27° WSW 02:51:00 34° WNW 02:55:03 10° N
Cosmos 1725 Rocket 4.0 02:45:59 10° NNW 02:52:14 64° W 02:58:27 10° S
NOSS 2-1 (E) 3.7 02:49:21 10° SSW 02:52:44 47° SE 02:55:42 10° ENE
Cosmos 1727 Rocket 4.2 02:47:05 10° SW 02:53:02 48° WNW 02:59:05 10° N
BlueWalker 3 3.4 02:52:42 20° SW 02:53:05 20° SW 02:55:48 10° SSE
Cosmos 1461 4.0 02:56:44 23° NW 02:57:50 26° NNW 03:01:14 10° NE
Cosmos 1802 Rocket 4.1 02:51:44 10° NNW 02:57:57 54° W 03:04:04 10° SSW
CENTAUR R/B 3.5 02:52:57 15° NW 02:59:27 62° NNE 03:08:27 10° ESE
Meteor 2-21 4.5 02:53:38 10° SSW 02:59:37 57° WNW 03:05:36 10° N
Helios 1A Rocket 3.0 02:58:47 10° SSW 03:01:56 36° W 03:03:41 21° NW
Cosmos 2233 Rocket 4.0 02:58:33 10° NNW 03:04:53 73° W 03:11:08 10° S
Cosmos 304 Rocket 4.2 03:00:55 10° NNW 03:05:40 61° ENE 03:10:23 10° SE
SKYMED 2 4.0 03:01:52 10° SSW 03:05:59 41° W 03:10:07 10° NNW
Cosmos 2228 Rocket 3.8 03:03:48 13° SW 03:07:07 30° WNW 03:11:04 10° N
CZ-4 R/B 3.8 03:04:57 10° NNE 03:09:53 69° WNW 03:14:42 10° SSW
NOSS 7 (E) 4.3 03:11:44 19° NW 03:13:53 70° NE 03:17:03 10° ESE
Cosmos 2219 Rocket 2.8 03:10:45 15° WSW 03:14:58 38° NW 03:20:17 10° NNE
COSMO-SKYMED 1 2.9 03:14:21 10° SSW 03:18:14 40° W 03:22:09 10° NNW
COSMOS 2428 2.7 03:14:32 10° SW 03:20:13 68° NW 03:25:56 10° NNE
FengYun 1-2 T 4.4 03:15:51 10° N 03:21:09 48° WNW 03:26:28 10° SW
Meteor 2-16 Rocket 4.4 03:16:29 10° SSW 03:22:31 61° WNW 03:28:37 10° N
ADEOS Rocket 4.4 03:20:40 10° N 03:25:01 20° NW 03:28:51 12° W
ACS3 Solar Sail 3.1 03:23:22 10° N 03:27:07 17° NW 03:29:55 13° W
Cosmos 1703 Rocket 3.9 03:23:08 10° SW 03:27:15 41° WNW 03:31:27 10° N
Cosmos 2322 3.8 03:23:10 10° SW 03:28:44 55° NW 03:34:20 10° NNE
CZ-2C R/B 3.6 03:25:22 10° N 03:29:04 22° NW 03:32:50 10° WSW
CBERS-1 4.5 03:24:34 10° NNE 03:29:42 68° ESE 03:34:48 10° S
NOSS 3-1 (C) 3.1 03:25:21 10° WSW 03:30:19 75° NW 03:36:34 10° NE
SL-24 R/B - RUBIN 2 4.2 03:26:59 10° WSW 03:32:04 47° NNW 03:36:39 10° NE
IRS-1D 3.7 03:27:36 10° N 03:32:22 45° WNW 03:37:03 10° SW
NOSS 3-2 (C) 4.5 03:27:19 12° WNW 03:32:59 43° NNE 03:40:19 10° E
Cosmos 2151 Rocket 4.3 03:29:56 10° N 03:34:24 59° ENE 03:38:50 10° SSE
Cosmos 1190 Rocket 4.1 03:30:06 10° NNW 03:35:19 59° WSW 03:40:28 10° S
Cosmos 2123 Rocket 4.3 03:29:25 10° SW 03:35:20 44° WNW 03:41:16 10° N
Cosmos 676 Rocket 4.0 03:30:49 10° NNW 03:36:08 85° WSW 03:41:22 10° SSE
NOSS 2-1 (C) 2.6 03:33:04 10° WSW 03:36:18 64° NW 03:39:16 10° NE
Iridium 4 Rocket 3.9 03:33:05 10° NNW 03:36:55 28° W 03:40:32 10° SW
Aureole 3 Rocket 3.1 03:33:53 10° NNW 03:37:46 73° W 03:43:02 10° S
Cosmos 2242 Rocket 3.9 03:33:38 10° S 03:37:59 73° E 03:42:24 10° NNE
CZ-2D R/B 4.5 03:38:12 10° NNE 03:41:13 38° E 03:44:12 10° S
NOSS 2-1 (D) 2.7 03:38:12 10° WSW 03:41:23 55° NW 03:44:19 10° NE
Cosmos 1869 3.1 03:38:09 10° NNW 03:41:35 52° W 03:44:59 10° S
Cosmos 1980 3.7 03:36:46 10° SSW 03:42:27 88° NW 03:48:09 10° NNE
SMAP 4.0 03:38:02 10° NNE 03:42:38 54° E 03:47:12 10° S
Cosmos 1782 Rocket 4.4 03:40:26 10° NNW 03:44:16 29° W 03:48:01 10° SSW
COSMOS 2455 3.8 03:41:00 10° W 03:46:13 31° NNW 03:51:33 10° NE
Cosmos 2297 4.0 03:41:16 10° NNW 03:46:58 71° NE 03:52:36 10° SE
Cosmos 1980 Rocket 4.2 03:45:00 10° NNW 03:48:16 15° N 03:51:31 10° NE
Cosmos 2278 Rocket 3.3 03:44:33 10° NW 03:49:00 24° WSW 03:53:27 10° SSW
Lacrosse 4 Rocket 3.3 03:46:01 10° NNW 03:49:07 20° NNE 03:52:10 10° ENE
Thor Agena Rocket 3.9 03:45:31 10° NNE 03:50:49 76° ESE 03:56:01 10° SSW
IGS 5A 3.3 03:47:12 10° NNE 03:51:15 81° WNW 03:55:15 10° SSW
Cosmos 1656 Rocket 3.8 03:47:32 10° NW 03:53:10 67° WSW 03:58:47 10° SSE
SWARM C 4.5 03:50:03 10° SSW 03:53:20 65° W 03:56:40 10° N
SWARM A 4.1 03:50:07 10° S 03:53:25 76° W 03:56:46 10° N
Cosmos 1812 2.1 03:50:59 10° NNW 03:53:53 53° W 03:56:45 10° S
Cosmos 1954 Rocket 4.2 03:48:55 10° NW 03:53:58 51° WSW 03:58:58 10° S
Cosmos 2333 Rocket 3.7 03:51:25 10° WNW 03:55:35 20° NNW 03:59:46 10° NNE
USA 267 3.4 03:50:33 10° E 03:57:04 74° N 04:03:35 10° W
Cosmos 1674 Rocket 4.5 03:53:17 10° S 03:57:36 56° E 04:01:57 10° NNE
Cosmos 2237 Rocket 2.2 03:53:12 10° SW 03:58:52 76° NW 04:04:33 10° NNE
Cosmos 1484 Rocket 2.9 03:55:37 10° N 03:59:00 42° WNW 04:02:22 10° SW
Cosmos 2346 Rocket 4.5 03:53:50 10° SSW 03:59:58 63° WNW 04:06:02 10° N
Cosmos 1400 Rocket 2.6 03:56:27 10° NNW 04:00:15 87° WSW 04:03:58 10° SSE
NOSS 3-2 (A) 4.2 03:54:27 10° NW 04:01:04 63° NNE 04:09:16 10° ESE
Cosmos 1371 Rocket 4.5 03:56:38 10° SSW 04:01:52 69° ESE 04:07:12 10° NNE
Meteor 1-24 Rocket 4.4 03:57:57 10° WSW 04:02:59 31° WNW 04:07:55 10° N
Cosmos 2084 4.4 04:00:24 10° NW 04:04:14 36° NNE 04:08:00 10° E
Cosmos 1741 Rocket 4.4 03:59:13 10° NNW 04:04:32 70° ENE 04:09:50 10° SE
